GW1094 Weather Reports


Display with metric or nautical units.
time (UTC)temp
F
wind
direction
speed
MPH
gust
MPH
rain 1hr
in
rain 24hr
in
rain mn
in
humidity
%
barometer
mb
20260505033820 45 21 0.0 0.0 0.00 0.02 0.02 91 4085.3
20260505033316 45 21 1.0 1.0 0.00 0.02 0.02 92 4085.3
20260505032815 45 14 0.0 0.0 0.00 0.02 0.02 93 4085.3
20260505032310 45 13 0.0 0.0 0.00 0.02 0.02 93 4085.3
20260505031808 44 42 0.0 0.0 0.00 0.02 0.02 95 4085.3
20260505031304 44 42 0.0 0.0 0.00 0.02 0.02 95 4085.3
20260505030802 44 42 0.0 0.0 0.00 0.02 0.02 95 4085.3
20260505030258 44 42 0.0 0.0 0.00 0.02 0.02 95 4084.9
20260505025753 44 42 0.0 0.0 0.00 0.02 0.02 95 4084.9
20260505025251 45 42 0.0 0.0 0.00 0.02 0.02 95 4084.6
20260505024749 45 42 0.0 0.0 0.00 0.02 0.02 95 4084.9
20260505024246 45 42 0.0 0.0 0.00 0.02 0.02 94 4084.6
20260505023744 45 40 0.0 0.0 0.00 0.02 0.02 95 4084.9
20260505023240 45 40 0.0 0.0 0.00 0.02 0.02 95 4084.6
20260505022738 45 40 0.0 0.0 0.00 0.02 0.02 94 4084.6
20260505022235 45 40 0.0 0.0 0.00 0.02 0.02 94 4084.6
20260505021731 45 39 0.0 0.0 0.00 0.02 0.02 94 4084.9
20260505021229 46 39 0.0 0.0 0.00 0.02 0.02 94 4084.3
20260505020724 46 38 0.0 0.0 0.00 0.02 0.02 94 4084.9
20260505020219 46 31 0.0 0.0 0.00 0.02 0.02 93 4084.9
20260505015717 46 70 0.0 1.0 0.00 0.02 0.02 96 4084.9
20260505015214 46 70 2.0 2.0 0.00 0.02 0.02 96 4084.6
20260505014711 45 54 2.0 3.0 0.00 0.02 0.02 97 4084.9
20260505014208 46 110 1.0 1.0 0.00 0.02 0.02 99 4084.6
20260505013705 46 180 1.0 2.0 0.00 0.02 0.02 99 4084.6
20260505013202 46 183 0.0 0.0 0.00 0.02 0.02 99 4084.6
20260505012700 46 170 0.0 0.0 0.00 0.02 0.02 99 4084.3
20260505012157 46 171 0.0 0.0 0.00 0.02 0.02 99 4083.6
20260505011653 46 172 2.0 2.0 0.00 0.02 0.02 99 4083.9
20260505011150 46 159 1.0 1.0 0.00 0.02 0.02 99 4083.9
20260505010645 46 91 0.0 0.0 0.00 0.02 0.02 99 4083.6
20260505010143 46 91 0.0 0.0 0.00 0.02 0.02 99 4083.6
20260505005638 46 91 0.0 0.0 0.01 0.02 0.02 99 4083.6
20260505005136 47 91 0.0 0.0 0.01 0.02 0.02 99 4083.6
20260505004632 47 91 0.0 0.0 0.01 0.02 0.02 99 4083.6
20260505004129 48 91 0.0 0.0 0.01 0.02 0.02 99 4083.6
20260505003626 48 91 0.0 0.0 0.01 0.02 0.02 97 4083.6
20260505003124 48 91 0.0 0.0 0.01 0.02 0.02 96 4083.9
20260505002620 48 91 0.0 0.0 0.00 0.01 0.01 96 4083.6
20260505002118 48 91 0.0 0.0 0.00 0.01 0.01 95 4083.2
20260505001615 48 91 0.0 0.0 0.00 0.01 0.01 95 4083.6
20260505001113 49 91 0.0 0.0 0.00 0.01 0.01 94 4083.6
20260505000609 49 91 0.0 0.0 0.00 0.01 0.01 93 4083.6
20260505000108 49 90 0.0 0.0 0.00 0.01 0.01 93 4083.2
20260504235604 49 51 0.0 0.0 0.00 0.01 0.01 93 4082.6
20260504235100 50 50 0.0 0.0 0.00 0.01 0.01 91 4082.9
20260504234557 50 41 0.0 0.0 0.00 0.01 0.01 88 4082.9
20260504234054 50 12 1.0 2.0 0.00 0.01 0.01 87 4082.6
20260504233549 50 86 1.0 2.0 0.00 0.01 0.01 86 4082.2
20260504233046 51 358 1.0 1.0 0.00 0.01 0.01 87 4082.2
20260504232544 51 2 0.0 0.0 0.00 0.01 0.01 86 4082.2
20260504232041 51 21 1.0 1.0 0.00 0.01 0.01 86 4081.9
20260504231538 51 37 1.0 1.0 0.00 0.01 0.01 85 4081.9
20260504231034 51 46 1.0 2.0 0.00 0.01 0.01 85 4081.9
20260504230530 52 16 3.0 3.0 0.00 0.01 0.01 85 4081.9
20260504230029 52 23 3.0 3.0 0.00 0.01 0.01 84 4081.1
20260504225526 52 28 3.0 3.0 0.00 0.01 0.01 83 4081.1
20260504225023 52 21 4.0 5.0 0.00 0.01 0.01 83 4081.1
20260504224520 52 359 2.0 2.0 0.00 0.01 0.01 83 4080.8
20260504224017 52 31 2.0 3.0 0.00 0.01 0.01 83 4080.8
20260504223513 51 36 3.0 3.0 0.00 0.01 0.01 84 4080.8
20260504223009 48 7 2.0 2.0 0.00 0.01 0.01 89 4080.8
20260504222506 47 275 1.0 2.0 0.00 0.01 0.01 91 4080.8
20260504222004 47 12 0.0 0.0 0.00 0.01 0.01 89 4080.8
20260504221501 48 196 1.0 2.0 0.00 0.01 0.01 89 4080.4
20260504220958 48 42 2.0 3.0 0.00 0.01 0.01 87 4080.4
20260504220454 49 325 2.0 6.0 0.00 0.01 0.01 86 4080.1
20260504215951 49 82 1.0 2.0 0.00 0.01 0.01 86 4080.1
20260504215448 49 77 0.0 0.0 0.00 0.01 0.01 84 4080.1
20260504214944 50 91 0.0 1.0 0.00 0.01 0.01 82 4079.8
20260504214441 51 346 2.0 3.0 0.00 0.01 0.01 82 4079.8
20260504213937 51 41 3.0 3.0 0.00 0.01 0.01 81 4079.8
20260504213433 51 82 1.0 2.0 0.00 0.01 0.01 81 4079.8
20260504212931 52 82 0.0 1.0 0.00 0.01 0.01 79 4079.8
20260504212427 52 351 3.0 5.0 0.00 0.01 0.01 77 4079.8
20260504211925 53 86 2.0 2.0 0.00 0.01 0.01 76 4079.4
20260504211421 52 85 0.0 1.0 0.00 0.01 0.01 78 4079.8
20260504210918 53 116 0.0 0.0 0.00 0.01 0.01 76 4079.8
20260504210415 54 5 3.0 3.0 0.00 0.01 0.01 74 4079.4
20260504205912 53 95 1.0 2.0 0.00 0.01 0.01 73 4079.4
20260504205410 54 34 1.0 2.0 0.00 0.01 0.01 72 4079.4
20260504204908 59 218 3.0 5.0 0.00 0.01 0.01 67 4079.8
20260504204406 62 337 5.0 7.0 0.00 0.01 0.01 59 4079.4
20260504203905 62 243 17.0 18.0 0.00 0.01 0.01 57 4078.7
20260504203402 61 235 17.0 18.0 0.00 0.01 0.01 57 4078.7
20260504202857 62 237 18.0 20.0 0.00 0.01 0.01 57 4078.7
20260504202355 61 236 26.0 31.0 0.00 0.01 0.01 57 4078.7
20260504201851 62 235 25.0 29.0 0.00 0.01 0.01 55 4078.4
20260504201349 61 241 20.0 22.0 0.00 0.01 0.01 58 4078.7
20260504200846 60 245 22.0 29.0 0.00 0.01 0.01 58 4079.1
20260504200343 61 237 17.0 18.0 0.00 0.01 0.01 56 4079.1
20260504195839 61 235 17.0 18.0 0.00 0.01 0.01 57 4079.1
20260504195335 61 228 18.0 21.0 0.00 0.01 0.01 58 4078.7
20260504194832 62 234 18.0 21.0 0.00 0.01 0.01 56 4079.1
20260504194328 62 235 16.0 17.0 0.00 0.01 0.01 56 4079.1
20260504193824 62 231 26.0 27.0 0.00 0.01 0.01 54 4079.1
20260504193321 61 233 19.0 23.0 0.00 0.01 0.01 58 4078.7
20260504192820 62 230 17.0 18.0 0.00 0.01 0.01 59 4079.1
20260504192317 62 249 25.0 27.0 0.00 0.01 0.01 55 4079.1
20260504191816 63 235 25.0 26.0 0.00 0.01 0.01 52 4079.1
20260504191313 62 247 22.0 24.0 0.00 0.01 0.01 54 4079.4
20260504190808 64 243 21.0 23.0 0.00 0.01 0.01 51 4079.1
20260504190305 61 239 19.0 23.0 0.00 0.01 0.01 57 4079.1
20260504185801 62 247 21.0 22.0 0.00 0.01 0.01 55 4079.1
20260504185258 62 239 24.0 30.0 0.00 0.01 0.01 52 4079.1
20260504184754 62 244 18.0 20.0 0.00 0.01 0.01 57 4079.1
20260504184250 64 229 24.0 27.0 0.00 0.01 0.01 52 4079.1
20260504183746 62 225 27.0 30.0 0.00 0.01 0.01 50 4079.1
20260504183243 63 239 16.0 23.0 0.00 0.01 0.01 56 4079.1
20260504182741 61 240 15.0 17.0 0.00 0.01 0.01 57 4079.1
20260504182238 62 243 21.0 23.0 0.00 0.01 0.01 54 4079.1
20260504181736 63 229 18.0 20.0 0.00 0.01 0.01 55 4079.1
20260504181233 62 230 21.0 23.0 0.00 0.01 0.01 53 4079.1
20260504180732 63 229 18.0 20.0 0.00 0.01 0.01 54 4079.1
20260504180231 64 228 23.0 25.0 0.00 0.01 0.01 49 4078.4
20260504175728 64 229 26.0 30.0 0.00 0.01 0.01 50 4078.7
20260504175224 63 212 19.0 24.0 0.00 0.01 0.01 52 4078.7
20260504174722 63 200 18.0 20.0 0.00 0.01 0.01 55 4078.7
20260504174220 63 230 30.0 33.0 0.00 0.01 0.01 51 4079.1
20260504173716 62 234 21.0 25.0 0.00 0.01 0.01 54 4079.4
20260504173213 61 241 22.0 25.0 0.00 0.01 0.01 56 4079.4
20260504172710 62 233 19.0 22.0 0.00 0.01 0.01 56 4079.4
20260504172206 61 227 24.0 26.0 0.00 0.01 0.01 51 4079.8
20260504171703 61 226 20.0 22.0 0.00 0.01 0.01 56 4079.8
20260504171200 60 215 15.0 17.0 0.00 0.01 0.01 59 4080.1
20260504170656 60 222 15.0 16.0 0.00 0.01 0.01 59 4080.1
20260504170154 60 228 16.0 18.0 0.00 0.01 0.01 58 4080.1
20260504160112 56 221 17.0 18.0 0.00 0.01 0.01 64 4081.1
20260504151039 52 164 6.0 7.0 0.00 0.01 0.01 83 4082.2
20260504150536 53 146 6.0 8.0 0.00 0.01 0.01 85 4082.6
20260504141002 49 142 6.0 7.0 0.00 0.01 0.01 94 4082.9
20260504140459 49 148 5.0 6.0 0.00 0.01 0.01 94 4083.2
20260504130424 45 114 3.0 3.0 0.00 0.01 0.01 99 4084.3
20260504110310 39 123 0.0 0.0 0.00 0.01 0.01 99 4085.6
20260504100229 39 126 0.0 0.0 0.00 0.01 0.01 99 4086.0
20260504081622 36 144 0.0 0.0 0.00 0.00 0.00 99 4087.3
20260504081117 36 144 0.0 0.0 0.00 0.00 0.00 99 4087.3
20260504080615 36 144 0.0 0.0 0.00 0.00 0.00 99 4087.3
20260504080111 37 144 0.0 0.0 0.00 0.00 0.00 99 4087.6
20260504050427 39 178 0.0 0.0 0.00 0.00 0.00 99 4089.1
20260504045924 39 179 0.0 0.0 0.00 0.00 0.00 99 4089.1
20260504045420 39 179 0.0 0.0 0.00 0.00 0.00 99 4089.1
20260504044916 39 179 0.0 0.0 0.00 0.00 0.00 99 4088.7
20260504044414 38 179 0.0 0.0 0.00 0.00 0.00 99 4088.7
20260504043911 39 179 0.0 0.0 0.00 0.00 0.00 99 4089.1
20260504043408 39 179 0.0 0.0 0.00 0.00 0.00 99 4088.7
20260504042906 39 179 0.0 0.0 0.00 0.00 0.00 99 4088.7
20260504042402 39 179 0.0 0.0 0.00 0.00 0.00 99 4089.1
20260504041858 39 179 0.0 0.0 0.00 0.00 0.00 99 4089.1
20260504041354 39 179 0.0 0.0 0.00 0.00 0.00 99 4089.1
20260504040850 39 179 0.0 0.0 0.00 0.00 0.00 99 4089.1
20260504040348 39 179 0.0 0.0 0.00 0.00 0.00 99 4089.1
20260504035844 38 179 0.0 0.0 0.00 0.36 0.36 99 4089.4
20260504035342 39 179 0.0 0.0 0.00 0.36 0.36 99 4089.4
20260504034838 39 179 0.0 0.0 0.00 0.36 0.36 99 4089.4
20260504034336 39 179 0.0 0.0 0.00 0.36 0.36 99 4089.1